Miscellaneous Local Product
Issued by NWS North Platte, NE

Home | Current Version | Previous Version | Graphics & Text | Print | Product List | Glossary On
Versions: 1 2 3 4 5 6 7 8 9 10 11 12 13 14 15 16 17 18 19 20 21 22 23 24 25 26 27 28 29 30 31 32 33 34 35 36 37 38 39 40 41 42 43 44 45 46 47 48 49 50
232
AXUS43 KLBF 191010
MISLBF


WESTERN AND NORTH CENTRAL NEBRASKA HOURLY WEATHER ROUNDUP
NATIONAL WEATHER SERVICE NORTH PLATTE NE
500 AM CDT TUE SEP 19 2017

NOTE: "FAIR" INDICATES FEW OR NO CLOUDS BELOW 12,000 FEET WITH NO
SIGNIFICANT WEATHER AND/OR OBSTRUCTIONS TO VISIBILITY.

NOTE: STATIONS NOT REPORTING VARIABLES SUCH AS SKY/WEATHER OR
PRESSURE ARE PROVIDED BY RAWS AND APRS NETWORKS AND ARE NOT UNDER
NATIONAL WEATHER SERVICE QUALITY CONTROL.

...OBSERVATIONS IN AND NEAR THE EASTERN PANHANDLE OF NEBRASKA...

CITY           SKY/WX    TMP DP  RH WIND       PRES   REMARKS
PINE RIDGE     CLOUDY    66  54  65 S16G25    29.65F
GORDON         FAIR      62  55  76 S10       29.69F
CHADRON        CLOUDY    67  47  48 S29G37    29.61F
ALLIANCE       CLEAR     53  50  89 S9        29.70F
SIDNEY         CLOUDY    50  45  83 W3        29.74F
CRESCENT LAKE    N/A     58  55  90 SE7         N/A
$$

...OBSERVATIONS IN NORTHERN NEBRASKA AND FAR SOUTHERN SOUTH DAKOTA...

CITY           SKY/WX    TMP DP  RH WIND       PRES   REMARKS
WINNER         FAIR      65  60  84 S14       29.68F
VALENTINE      PTCLDY    64  59  83 S13       29.70F
THEDFORD       CLOUDY    64  59  83 S10       29.74F
AINSWORTH      CLOUDY    60  60  99 S10       29.72F
O`NEILL        CLEAR     61  61 100 SE8       29.76F FOG
ORD            FOG       60  59  96 SE5       29.75F VSB 1/4
BROKEN BOW     PTCLDY    57  55  93 SE5       29.75F FOG
VALENTINE NWR    N/A     58  57  96 S7          N/A
HALSEY           N/A     60  59  96 SE5         N/A
BUTTE            N/A     61  59  94 SE8         N/A
CHAMBERS         N/A     60  59  98 CALM        N/A
EWING            N/A     61  60  97 CALM        N/A
$$

...OBSERVATIONS IN SOUTHWEST NEBRASKA AND FAR NORTHEAST COLORADO...

CITY           SKY/WX    TMP DP  RH WIND       PRES   REMARKS
WRAY           FAIR      63  54  72 S10       29.72F
HOLYOKE        FAIR      59  52  77 SE7       29.72F
IMPERIAL       CLOUDY    60  55  83 SE9       29.71F
OGALLALA       PTCLDY    65  57  75 S12       29.71F
NORTH PLATTE   CLEAR     58  57  97 E10       29.73F
MCCOOK         CLEAR     64  60  87 VRB3      29.73F
LEXINGTON      CLEAR     61  59  91 SE6       29.76F
STAPLETON        N/A     59  57  92 CALM        N/A
GOTHENBURG       N/A     58  55  90 CALM        N/A
$$

...OBSERVATIONS IN CENTRAL LINCOLN COUNTY AREA...

CITY           SKY/WX    TMP DP  RH WIND       PRES   REMARKS
N.P. AIRPORT   CLEAR     58  57  97 E10       29.73F
N.P. DOWNTOWN    N/A     64  59  83 CALM        N/A
N.P. SOUTHEAST   N/A     63  58  83 CALM        N/A
N.P. HILLCREST   N/A     61  58  91 E8          N/A
$$

...SOME OBSERVATIONS FROM AROUND THE REGION...

CITY           SKY/WX    TMP DP  RH WIND       PRES   REMARKS
DENVER         CLOUDY    63  26  24 S16       29.76F
LIMON            N/A    N/A N/A N/A MISG      29.82F
ASPEN          CLOUDY    51  24  34 S13       29.99F
LARAMIE        CLOUDY    50  19  29 SE10      29.82F
CASPER         CLOUDY    57  35  43 W14       29.65F
CHEYENNE       CLOUDY    48  31  51 SW8       29.78F
SCOTTSBLUFF    CLOUDY    57  48  72 E9        29.70F
GRAND ISLAND   CLEAR     64  64 100 S9        29.78F
OMAHA          CLOUDY    68  64  87 SE13      29.83F
SIOUX FALLS    CLOUDY    67  66  97 S9        29.81S FOG
PIERRE         CLEAR     61  58  90 SE14      29.62F
BISMARCK       CLOUDY    56  51  84 E9        29.61F
KANSAS CITY    TSTM      69  67  93 S8        29.89S
HILL CITY      CLEAR     69  65  86 VRB5      29.77F
WICHITA        PTCLDY    67  67 100 S7        29.84F
DODGE CITY     CLEAR     67  63  87 SE10      29.81F
OKLAHOMA CITY  PTCLDY    70  67  90 S12       29.86F
DALLAS         PTCLDY    77  73  87 S9        29.89F
AMARILLO       CLEAR     69  60  73 SW15      29.91F
$$




USA.gov is the U.S. government's official web portal to all federal, state and local government web resources and services.